Location: Peterborough
(44.3091°N, 78.3197°W)
Time: 05:00:21
(UTC-04:00)

Vanguard 3 - Pass Details

Date: 28 February 2024
Orbit: 510 x 3236 km, 33.3° (Epoch: 12 April)

Event Time Altitude Azimuth Distance (km) Brightness Sun altitude
Rises 23:13:56 0° 267° (W) 7,125 12.2 -50.3°
Reaches altitude 10° 23:18:49 10° 264° (W) 6,166 11.7 -50.7°
Enters shadow 23:29:37 37° 245° (WSW) 4,180 10.5 -51.5°
Maximum altitude 23:37:28 54° 195° (SSW) 3,306 - -52.0°
Drops below altitude 10° 23:51:03 10° 123° (ESE) 4,624 - -52.7°
Sets 23:54:08 0° 119° (ESE) 5,309 - -52.8°
